Time,TemperatureF,DewpointF,PressureIn,WindDirection,WindDirectionDegrees,WindSpeedMPH,WindSpeedGustMPH,Humidity,HourlyPrecipIn,Conditions,Clouds,dailyrainin,SoftwareType,DateUTC
2013-11-03 00:01:00,52.4,44.8,30.18,NNE,26,2.7,3.0,75,0.00,,,0.00,WUHU216DAVISVP2,2013-11-03 05:01:00,
2013-11-03 00:06:00,52.5,44.9,30.18,NNE,26,1.4,4.1,75,0.00,,,0.00,WUHU216DAVISVP2,2013-11-03 05:06:00,
2013-11-03 00:11:00,52.6,44.6,30.18,NNE,26,2.7,4.1,74,0.00,,,0.00,WUHU216DAVISVP2,2013-11-03 05:11:00,
2013-11-03 00:16:00,52.8,44.8,30.18,NNE,24,4.1,5.4,74,0.00,,,0.00,WUHU216DAVISVP2,2013-11-03 05:16:00,
2013-11-03 00:21:00,52.9,44.9,30.18,NNE,24,2.7,5.4,74,0.00,,,0.00,WUHU216DAVISVP2,2013-11-03 05:21:00,
2013-11-03 00:26:00,52.9,44.9,30.18,NNE,29,2.7,5.4,74,0.00,,,0.00,WUHU216DAVISVP2,2013-11-03 05:26:00,
2013-11-03 00:31:00,53.0,44.7,30.18,NNE,20,4.1,5.4,73,0.00,,,0.00,WUHU216DAVISVP2,2013-11-03 05:31:00,
2013-11-03 00:36:00,53.0,44.7,30.18,NNE,21,1.4,5.4,73,0.00,,,0.00,WUHU216DAVISVP2,2013-11-03 05:36:00,
2013-11-03 00:41:00,53.1,44.4,30.18,NNE,21,0.0,4.1,72,0.00,,,0.00,WUHU216DAVISVP2,2013-11-03 05:41:00,
2013-11-03 00:46:00,53.1,44.7,30.18,NNE,21,0.0,4.0,73,0.00,,,0.00,WUHU216DAVISVP2,2013-11-03 05:46:00,
2013-11-03 00:52:00,52.9,44.5,30.18,NNE,20,0.0,3.0,73,0.00,,,0.00,WUHU216DAVISVP2,2013-11-03 05:52:00,
2013-11-03 00:57:00,52.9,44.6,30.18,NNE,21,0.0,2.0,73,0.00,,,0.00,WUHU216DAVISVP2,2013-11-03 05:57:00,
2013-11-03 01:02:00,52.9,44.6,30.18,NNE,21,0.0,0.0,73,0.00,,,0.00,WUHU216DAVISVP2,2013-11-03 06:02:00,
2013-11-03 01:07:00,52.9,44.6,30.18,NNE,21,0.0,0.0,73,0.00,,,0.00,WUHU216DAVISVP2,2013-11-03 06:07:00,
2013-11-03 01:12:00,52.6,45.7,30.17,NNE,21,0.0,0.0,77,0.00,,,0.00,WUHU216DAVISVP2,2013-11-03 06:12:00,
2013-11-03 01:17:00,51.9,45.0,30.17,NNE,20,0.0,0.0,77,0.00,,,0.00,WUHU216DAVISVP2,2013-11-03 06:17:00,
2013-11-03 01:22:00,51.4,44.8,30.17,NNE,20,0.0,0.0,78,0.00,,,0.00,WUHU216DAVISVP2,2013-11-03 06:22:00,
2013-11-03 01:27:00,51.1,45.2,30.17,NNE,21,0.0,0.0,80,0.00,,,0.00,WUHU216DAVISVP2,2013-11-03 06:27:00,
2013-11-03 01:32:00,50.8,44.6,30.17,NNE,21,0.0,0.0,79,0.00,,,0.00,WUHU216DAVISVP2,2013-11-03 06:32:00,
2013-11-03 01:37:00,50.4,44.5,30.17,NNE,21,0.0,0.0,80,0.00,,,0.00,WUHU216DAVISVP2,2013-11-03 06:37:00,
2013-11-03 01:42:00,50.4,44.8,30.17,NNE,21,0.0,0.0,81,0.00,,,0.00,WUHU216DAVISVP2,2013-11-03 06:42:00,
2013-11-03 01:47:00,50.0,44.7,30.17,NNE,20,0.0,0.0,82,0.00,,,0.00,WUHU216DAVISVP2,2013-11-03 06:47:00,
2013-11-03 01:52:00,49.8,44.5,30.17,NNE,20,0.0,0.0,82,0.00,,,0.00,WUHU216DAVISVP2,2013-11-03 06:52:00,
2013-11-03 01:57:00,49.6,44.6,30.17,NNE,21,0.0,0.0,83,0.00,,,0.00,WUHU216DAVISVP2,2013-11-03 06:57:00,
2013-11-03 01:02:00,49.5,44.5,30.17,NNE,21,0.0,0.0,83,0.00,,,0.00,WUHU216DAVISVP2,2013-11-03 07:02:00,
2013-11-03 01:07:00,49.3,44.4,30.17,NNE,21,0.0,0.0,83,0.00,,,0.00,WUHU216DAVISVP2,2013-11-03 07:07:00,
2013-11-03 01:13:00,49.1,44.2,30.17,NNE,21,0.0,0.0,83,0.00,,,0.00,WUHU216DAVISVP2,2013-11-03 07:13:00,
2013-11-03 01:18:00,48.9,44.3,30.17,NNE,20,0.0,0.0,84,0.00,,,0.00,WUHU216DAVISVP2,2013-11-03 07:18:00,
2013-11-03 01:23:00,48.7,44.1,30.17,NNE,21,0.0,0.0,84,0.00,,,0.00,WUHU216DAVISVP2,2013-11-03 07:23:00,
2013-11-03 01:28:00,48.5,44.2,30.17,NNE,20,0.0,0.0,85,0.00,,,0.00,WUHU216DAVISVP2,2013-11-03 07:28:00,
2013-11-03 01:33:00,48.3,44.3,30.16,NNE,21,0.0,0.0,86,0.00,,,0.00,WUHU216DAVISVP2,2013-11-03 07:33:00,
2013-11-03 01:38:00,48.3,44.0,30.16,NNE,20,0.0,0.0,85,0.00,,,0.00,WUHU216DAVISVP2,2013-11-03 07:38:00,
2013-11-03 01:43:00,48.2,44.2,30.16,NNE,20,0.0,0.0,86,0.00,,,0.00,WUHU216DAVISVP2,2013-11-03 07:43:00,
2013-11-03 01:48:00,48.1,44.1,30.16,NNE,21,0.0,0.0,86,0.00,,,0.00,WUHU216DAVISVP2,2013-11-03 07:48:00,
2013-11-03 01:53:00,47.8,44.1,30.16,NNE,20,0.0,0.0,87,0.00,,,0.00,WUHU216DAVISVP2,2013-11-03 07:53:00,
2013-11-03 01:58:00,47.5,44.1,30.16,NNE,21,0.0,0.0,88,0.00,,,0.00,WUHU216DAVISVP2,2013-11-03 07:58:00,
2013-11-03 02:03:00,47.3,43.9,30.16,NNE,20,0.0,0.0,88,0.00,,,0.00,WUHU216DAVISVP2,2013-11-03 08:03:00,
2013-11-03 02:08:00,47.2,43.8,30.16,NNE,21,0.0,0.0,88,0.00,,,0.00,WUHU216DAVISVP2,2013-11-03 08:08:00,
2013-11-03 02:13:00,47.1,44.0,30.15,NNE,21,0.0,0.0,89,0.00,,,0.00,WUHU216DAVISVP2,2013-11-03 08:13:00,
2013-11-03 02:18:00,47.0,43.8,30.15,NNE,21,0.0,0.0,89,0.00,,,0.00,WUHU216DAVISVP2,2013-11-03 08:18:00,
2013-11-03 02:23:00,46.7,43.6,30.15,NNE,20,0.0,0.0,89,0.00,,,0.00,WUHU216DAVISVP2,2013-11-03 08:23:00,
2013-11-03 02:28:00,46.6,43.5,30.15,NNE,21,0.0,0.0,89,0.00,,,0.00,WUHU216DAVISVP2,2013-11-03 08:28:00,
2013-11-03 02:33:00,46.5,43.4,30.15,NNE,21,0.0,0.0,89,0.00,,,0.00,WUHU216DAVISVP2,2013-11-03 08:33:00,
2013-11-03 02:38:00,46.5,43.4,30.14,NNE,20,1.4,2.7,89,0.00,,,0.00,WUHU216DAVISVP2,2013-11-03 08:38:00,
2013-11-03 02:43:00,46.6,43.5,30.15,NNE,20,1.4,2.7,89,0.00,,,0.00,WUHU216DAVISVP2,2013-11-03 08:43:00,
2013-11-03 02:48:00,46.7,43.3,30.14,NNE,20,1.4,2.7,88,0.00,,,0.00,WUHU216DAVISVP2,2013-11-03 08:48:00,
2013-11-03 02:53:00,46.9,43.5,30.14,NNE,20,0.0,2.7,88,0.00,,,0.00,WUHU216DAVISVP2,2013-11-03 08:53:00,
2013-11-03 02:58:00,47.0,43.6,30.14,NNE,20,0.0,2.0,88,0.00,,,0.00,WUHU216DAVISVP2,2013-11-03 08:58:00,
2013-11-03 03:03:00,47.0,43.3,30.14,NNE,20,0.0,2.0,87,0.00,,,0.00,WUHU216DAVISVP2,2013-11-03 09:03:00,
2013-11-03 03:08:00,47.1,43.4,30.14,NNE,20,0.0,1.4,87,0.00,,,0.00,WUHU216DAVISVP2,2013-11-03 09:08:00,
2013-11-03 03:13:00,47.4,43.4,30.14,NNE,20,0.0,1.4,86,0.00,,,0.00,WUHU216DAVISVP2,2013-11-03 09:13:00,
2013-11-03 03:18:00,47.6,43.6,30.14,NNE,20,0.0,1.4,86,0.00,,,0.00,WUHU216DAVISVP2,2013-11-03 09:18:00,
2013-11-03 03:23:00,47.6,43.6,30.15,NNE,20,0.0,1.4,86,0.00,,,0.00,WUHU216DAVISVP2,2013-11-03 09:23:00,
2013-11-03 03:28:00,47.4,43.1,30.14,NNE,20,0.0,1.0,85,0.00,,,0.00,WUHU216DAVISVP2,2013-11-03 09:28:00,
2013-11-03 03:33:00,47.3,43.3,30.14,NNE,20,0.0,1.0,86,0.00,,,0.00,WUHU216DAVISVP2,2013-11-03 09:33:00,
2013-11-03 03:38:00,47.2,43.2,30.14,NNE,20,0.0,0.0,86,0.00,,,0.00,WUHU216DAVISVP2,2013-11-03 09:38:00,
2013-11-03 03:43:00,47.0,43.0,30.14,NNE,20,0.0,0.0,86,0.00,,,0.00,WUHU216DAVISVP2,2013-11-03 09:43:00,
2013-11-03 03:48:00,46.7,43.1,30.14,NNE,20,0.0,0.0,87,0.00,,,0.00,WUHU216DAVISVP2,2013-11-03 09:48:00,
2013-11-03 03:54:00,46.6,43.2,30.14,NNE,20,0.0,0.0,88,0.00,,,0.00,WUHU216DAVISVP2,2013-11-03 09:54:00,
2013-11-03 03:59:00,46.4,43.0,30.14,NNE,20,0.0,0.0,88,0.00,,,0.00,WUHU216DAVISVP2,2013-11-03 09:59:00,
2013-11-03 04:04:00,46.2,42.8,30.14,NNE,20,0.0,0.0,88,0.00,,,0.00,WUHU216DAVISVP2,2013-11-03 10:04:00,
2013-11-03 04:09:00,46.0,42.9,30.14,NNE,20,0.0,0.0,89,0.00,,,0.00,WUHU216DAVISVP2,2013-11-03 10:09:00,
2013-11-03 04:14:00,45.8,42.7,30.14,NNE,20,0.0,0.0,89,0.00,,,0.00,WUHU216DAVISVP2,2013-11-03 10:14:00,
2013-11-03 04:19:00,45.6,42.5,30.14,NNE,20,0.0,0.0,89,0.00,,,0.00,WUHU216DAVISVP2,2013-11-03 10:19:00,
2013-11-03 04:24:00,45.5,42.7,30.14,NNE,20,0.0,0.0,90,0.00,,,0.00,WUHU216DAVISVP2,2013-11-03 10:24:00,
2013-11-03 04:29:00,45.4,42.6,30.14,NNE,20,0.0,0.0,90,0.00,,,0.00,WUHU216DAVISVP2,2013-11-03 10:29:00,
2013-11-03 04:34:00,45.3,42.5,30.14,NNE,20,0.0,0.0,90,0.00,,,0.00,WUHU216DAVISVP2,2013-11-03 10:34:00,
2013-11-03 04:39:00,45.3,42.5,30.14,NNE,20,0.0,0.0,90,0.00,,,0.00,WUHU216DAVISVP2,2013-11-03 10:39:00,
2013-11-03 04:44:00,45.2,42.4,30.14,NNE,20,0.0,0.0,90,0.00,,,0.00,WUHU216DAVISVP2,2013-11-03 10:44:00,
2013-11-03 04:49:00,45.1,42.3,30.14,NNE,20,0.0,0.0,90,0.00,,,0.00,WUHU216DAVISVP2,2013-11-03 10:49:00,
2013-11-03 04:54:00,45.0,42.2,30.14,NNE,20,1.4,1.4,90,0.00,,,0.00,WUHU216DAVISVP2,2013-11-03 10:54:00,
2013-11-03 04:59:00,44.8,42.0,30.14,NNE,20,0.0,1.4,90,0.00,,,0.00,WUHU216DAVISVP2,2013-11-03 10:59:00,
2013-11-03 05:04:00,44.7,42.0,30.14,NNE,20,0.0,2.7,90,0.00,,,0.00,WUHU216DAVISVP2,2013-11-03 11:04:00,
2013-11-03 05:09:00,44.8,42.0,30.14,NNE,20,0.0,2.7,90,0.00,,,0.00,WUHU216DAVISVP2,2013-11-03 11:09:00,
2013-11-03 05:14:00,44.8,42.0,30.14,NNE,20,0.0,2.7,90,0.00,,,0.00,WUHU216DAVISVP2,2013-11-03 11:14:00,
2013-11-03 05:19:00,44.8,41.7,30.14,NNE,20,0.0,2.0,89,0.00,,,0.00,WUHU216DAVISVP2,2013-11-03 11:19:00,
2013-11-03 05:24:00,44.9,41.8,30.14,NNE,20,0.0,2.0,89,0.00,,,0.00,WUHU216DAVISVP2,2013-11-03 11:24:00,
2013-11-03 05:29:00,44.9,41.8,30.14,NNE,20,0.0,1.4,89,0.00,,,0.00,WUHU216DAVISVP2,2013-11-03 11:29:00,
2013-11-03 05:34:00,45.0,41.6,30.14,NNE,22,4.1,5.4,88,0.00,,,0.00,WUHU216DAVISVP2,2013-11-03 11:34:00,
2013-11-03 05:39:00,45.3,41.9,30.14,NNE,18,1.4,5.4,88,0.00,,,0.00,WUHU216DAVISVP2,2013-11-03 11:39:00,
2013-11-03 05:44:00,45.6,41.9,30.14,NNE,16,4.1,5.4,87,0.00,,,0.00,WUHU216DAVISVP2,2013-11-03 11:44:00,
2013-11-03 05:49:00,45.7,41.8,30.14,NNE,16,2.7,5.4,86,0.00,,,0.00,WUHU216DAVISVP2,2013-11-03 11:49:00,
2013-11-03 05:54:00,45.8,41.9,30.14,NNE,16,0.0,4.1,86,0.00,,,0.00,WUHU216DAVISVP2,2013-11-03 11:54:00,
2013-11-03 05:59:00,45.8,41.6,30.14,NNE,16,2.7,4.0,85,0.00,,,0.00,WUHU216DAVISVP2,2013-11-03 11:59:00,
2013-11-03 06:04:00,45.9,41.7,30.14,NNE,16,0.0,3.0,85,0.00,,,0.00,WUHU216DAVISVP2,2013-11-03 12:04:00,
2013-11-03 06:10:00,46.1,41.9,30.14,NNE,16,0.0,2.7,85,0.00,,,0.00,WUHU216DAVISVP2,2013-11-03 12:10:00,
2013-11-03 06:15:00,46.1,41.9,30.14,NNE,16,0.0,2.0,85,0.00,,,0.00,WUHU216DAVISVP2,2013-11-03 12:15:00,
2013-11-03 06:20:00,45.9,41.7,30.14,NNE,16,1.4,2.7,85,0.00,,,0.00,WUHU216DAVISVP2,2013-11-03 12:20:00,
2013-11-03 06:25:00,45.8,41.6,30.13,NNE,22,4.1,4.1,85,0.00,,,0.00,WUHU216DAVISVP2,2013-11-03 12:25:00,
2013-11-03 06:30:00,45.8,41.6,30.13,NNE,31,1.4,4.1,85,0.00,,,0.00,WUHU216DAVISVP2,2013-11-03 12:30:00,
2013-11-03 06:35:00,45.9,41.6,30.14,NE,35,2.7,5.4,85,0.00,,,0.00,WUHU216DAVISVP2,2013-11-03 12:35:00,
2013-11-03 06:40:00,46.0,41.7,30.14,NE,34,1.4,5.4,85,0.00,,,0.00,WUHU216DAVISVP2,2013-11-03 12:40:00,
2013-11-03 06:45:00,46.1,41.5,30.14,NE,34,0.0,4.1,84,0.00,,,0.00,WUHU216DAVISVP2,2013-11-03 12:45:00,
2013-11-03 06:50:00,46.2,41.6,30.14,NE,34,0.0,4.0,84,0.00,,,0.00,WUHU216DAVISVP2,2013-11-03 12:50:00,
2013-11-03 06:55:00,46.3,41.7,30.14,NE,34,1.4,4.1,84,0.00,,,0.00,WUHU216DAVISVP2,2013-11-03 12:55:00,
2013-11-03 07:00:00,46.4,41.8,30.13,NE,34,1.4,4.1,84,0.00,,,0.00,WUHU216DAVISVP2,2013-11-03 13:00:00,
2013-11-03 07:05:00,46.4,41.8,30.13,NE,39,0.0,5.4,84,0.00,,,0.00,WUHU216DAVISVP2,2013-11-03 13:05:00,
2013-11-03 07:10:00,46.7,42.1,30.13,NE,39,0.0,5.4,84,0.00,,,0.00,WUHU216DAVISVP2,2013-11-03 13:10:00,
2013-11-03 07:15:00,47.3,42.1,30.14,NE,39,0.0,4.0,82,0.00,,,0.00,WUHU216DAVISVP2,2013-11-03 13:15:00,
2013-11-03 07:20:00,48.2,42.6,30.14,NE,39,0.0,4.0,81,0.00,,,0.00,WUHU216DAVISVP2,2013-11-03 13:20:00,
2013-11-03 07:25:00,49.1,43.2,30.14,NE,37,1.4,4.1,80,0.00,,,0.00,WUHU216DAVISVP2,2013-11-03 13:25:00,
2013-11-03 07:30:00,50.0,43.8,30.14,NE,37,1.4,4.1,79,0.00,,,0.00,WUHU216DAVISVP2,2013-11-03 13:30:00,
2013-11-03 07:35:00,50.8,43.9,30.15,NE,37,0.0,5.4,77,0.00,,,0.00,WUHU216DAVISVP2,2013-11-03 13:35:00,
2013-11-03 07:40:00,51.4,44.2,30.15,NE,37,0.0,5.4,76,0.00,,,0.00,WUHU216DAVISVP2,2013-11-03 13:40:00,
2013-11-03 07:45:00,52.0,44.1,30.15,NE,37,0.0,4.0,74,0.00,,,0.00,WUHU216DAVISVP2,2013-11-03 13:45:00,
2013-11-03 07:50:00,52.7,44.7,30.15,NE,37,1.4,4.0,74,0.00,,,0.00,WUHU216DAVISVP2,2013-11-03 13:50:00,
2013-11-03 07:55:00,53.3,45.0,30.15,NE,37,0.0,2.7,73,0.00,,,0.00,WUHU216DAVISVP2,2013-11-03 13:55:00,
2013-11-03 08:00:00,53.6,44.5,30.15,NNE,26,1.4,2.7,71,0.00,,,0.00,WUHU216DAVISVP2,2013-11-03 14:00:00,
2013-11-03 08:05:00,53.7,44.6,30.15,ENE,60,1.4,2.7,71,0.00,,,0.00,WUHU216DAVISVP2,2013-11-03 14:05:00,
2013-11-03 08:10:00,53.8,44.0,30.15,ENE,70,1.4,4.1,69,0.00,,,0.00,WUHU216DAVISVP2,2013-11-03 14:10:00,
2013-11-03 08:15:00,54.0,44.2,30.15,East,89,2.7,4.1,69,0.00,,,0.00,WUHU216DAVISVP2,2013-11-03 14:15:00,
2013-11-03 08:20:00,54.2,44.3,30.15,East,89,0.0,4.1,69,0.00,,,0.00,WUHU216DAVISVP2,2013-11-03 14:20:00,
2013-11-03 08:25:00,54.5,44.6,30.15,East,96,2.7,4.1,69,0.00,,,0.00,WUHU216DAVISVP2,2013-11-03 14:25:00,
2013-11-03 08:30:00,54.8,44.2,30.15,East,101,2.7,6.8,67,0.00,,,0.00,WUHU216DAVISVP2,2013-11-03 14:30:00,
2013-11-03 08:36:00,55.1,44.9,30.15,East,91,4.1,6.8,68,0.00,,,0.00,WUHU216DAVISVP2,2013-11-03 14:36:00,
2013-11-03 08:41:00,55.2,43.8,30.15,East,86,6.8,8.1,65,0.00,,,0.00,WUHU216DAVISVP2,2013-11-03 14:41:00,
2013-11-03 08:46:00,55.3,44.7,30.16,East,99,2.7,8.1,67,0.00,,,0.00,WUHU216DAVISVP2,2013-11-03 14:46:00,
2013-11-03 08:51:00,55.5,44.8,30.16,East,100,4.1,8.1,67,0.00,,,0.00,WUHU216DAVISVP2,2013-11-03 14:51:00,
2013-11-03 08:56:00,55.7,44.6,30.16,East,87,2.7,8.1,66,0.00,,,0.00,WUHU216DAVISVP2,2013-11-03 14:56:00,
2013-11-03 09:01:00,56.0,45.4,30.16,ESE,109,2.7,8.1,67,0.00,,,0.00,WUHU216DAVISVP2,2013-11-03 15:01:00,
2013-11-03 09:06:00,56.3,45.6,30.16,SE,128,2.7,8.1,67,0.00,,,0.00,WUHU216DAVISVP2,2013-11-03 15:06:00,
2013-11-03 09:11:00,56.8,45.7,30.16,East,95,2.7,8.1,66,0.00,,,0.00,WUHU216DAVISVP2,2013-11-03 15:11:00,
2013-11-03 09:16:00,57.3,45.8,30.16,East,101,4.1,6.8,65,0.00,,,0.00,WUHU216DAVISVP2,2013-11-03 15:16:00,
2013-11-03 09:21:00,57.9,46.4,30.16,East,100,1.4,6.8,65,0.00,,,0.00,WUHU216DAVISVP2,2013-11-03 15:21:00,
2013-11-03 09:26:00,58.5,46.5,30.16,East,99,2.7,5.0,64,0.00,,,0.00,WUHU216DAVISVP2,2013-11-03 15:26:00,
2013-11-03 09:31:00,59.2,46.4,30.16,ESE,122,2.7,8.1,62,0.00,,,0.00,WUHU216DAVISVP2,2013-11-03 15:31:00,
2013-11-03 09:36:00,59.7,45.0,30.16,ESE,107,1.4,8.1,58,0.00,,,0.00,WUHU216DAVISVP2,2013-11-03 15:36:00,
2013-11-03 09:41:00,60.4,44.7,30.15,East,97,2.7,6.8,56,0.00,,,0.00,WUHU216DAVISVP2,2013-11-03 15:41:00,
2013-11-03 09:46:00,61.0,44.8,30.15,SE,140,2.7,9.4,55,0.00,,,0.00,WUHU216DAVISVP2,2013-11-03 15:46:00,
2013-11-03 09:51:00,61.6,44.4,30.15,SSE,152,2.7,9.4,53,0.00,,,0.00,WUHU216DAVISVP2,2013-11-03 15:51:00,
2013-11-03 09:56:00,61.8,42.9,30.15,ESE,108,2.7,9.4,50,0.00,,,0.00,WUHU216DAVISVP2,2013-11-03 15:56:00,
2013-11-03 10:01:00,61.8,44.0,30.16,ESE,108,4.1,12.1,52,0.00,,,0.00,WUHU216DAVISVP2,2013-11-03 16:01:00,
2013-11-03 10:06:00,61.8,42.4,30.16,SE,128,2.7,12.1,49,0.00,,,0.00,WUHU216DAVISVP2,2013-11-03 16:06:00,
2013-11-03 10:11:00,62.1,41.6,30.15,ESE,108,6.8,9.4,47,0.00,,,0.00,WUHU216DAVISVP2,2013-11-03 16:11:00,
2013-11-03 10:16:00,62.7,42.1,30.15,East,93,6.8,9.4,47,0.00,,,0.00,WUHU216DAVISVP2,2013-11-03 16:16:00,
2013-11-03 10:21:00,63.2,42.6,30.15,ESE,123,13.5,13.5,47,0.00,,,0.00,WUHU216DAVISVP2,2013-11-03 16:21:00,
2013-11-03 10:26:00,63.4,41.6,30.15,ESE,105,6.8,13.5,45,0.00,,,0.00,WUHU216DAVISVP2,2013-11-03 16:26:00,
2013-11-03 10:31:00,63.5,41.1,30.14,SE,133,8.1,10.8,44,0.00,,,0.00,WUHU216DAVISVP2,2013-11-03 16:31:00,
2013-11-03 10:36:00,63.9,40.2,30.14,ENE,74,4.1,10.0,42,0.00,,,0.00,WUHU216DAVISVP2,2013-11-03 16:36:00,
2013-11-03 10:41:00,64.2,40.5,30.14,East,96,8.1,9.4,42,0.00,,,0.00,WUHU216DAVISVP2,2013-11-03 16:41:00,
2013-11-03 10:46:00,64.2,39.9,30.14,East,99,6.8,10.8,41,0.00,,,0.00,WUHU216DAVISVP2,2013-11-03 16:46:00,
2013-11-03 10:52:00,64.6,40.9,30.14,ESE,112,4.1,10.8,42,0.00,,,0.00,WUHU216DAVISVP2,2013-11-03 16:52:00,
2013-11-03 10:57:00,65.0,38.6,30.13,SE,128,6.8,10.8,38,0.00,,,0.00,WUHU216DAVISVP2,2013-11-03 16:57:00,
2013-11-03 11:02:00,65.1,40.7,30.13,South,172,4.1,12.1,41,0.00,,,0.00,WUHU216DAVISVP2,2013-11-03 17:02:00,
2013-11-03 11:07:00,65.5,40.4,30.13,South,170,9.4,12.1,40,0.00,,,0.00,WUHU216DAVISVP2,2013-11-03 17:07:00,
2013-11-03 11:12:00,65.5,41.2,30.13,SSE,156,6.8,10.8,41,0.00,,,0.00,WUHU216DAVISVP2,2013-11-03 17:12:00,
2013-11-03 11:17:00,65.6,41.9,30.13,East,100,4.1,13.5,42,0.00,,,0.00,WUHU216DAVISVP2,2013-11-03 17:17:00,
2013-11-03 11:22:00,66.1,42.2,30.12,East,82,4.1,13.5,42,0.00,,,0.00,WUHU216DAVISVP2,2013-11-03 17:22:00,
2013-11-03 11:27:00,66.3,41.8,30.12,ENE,64,0.0,10.0,41,0.00,,,0.00,WUHU216DAVISVP2,2013-11-03 17:27:00,
2013-11-03 11:32:00,66.6,42.0,30.12,SE,127,1.4,9.4,41,0.00,,,0.00,WUHU216DAVISVP2,2013-11-03 17:32:00,
2013-11-03 11:37:00,66.7,41.5,30.12,South,174,2.7,9.4,40,0.00,,,0.00,WUHU216DAVISVP2,2013-11-03 17:37:00,
2013-11-03 11:42:00,67.2,40.6,30.12,SE,125,0.0,9.4,38,0.00,,,0.00,WUHU216DAVISVP2,2013-11-03 17:42:00,
2013-11-03 11:47:00,67.3,41.3,30.12,SE,128,4.1,8.1,39,0.00,,,0.00,WUHU216DAVISVP2,2013-11-03 17:47:00,
2013-11-03 11:52:00,67.4,40.7,30.11,SE,141,5.4,9.4,38,0.00,,,0.00,WUHU216DAVISVP2,2013-11-03 17:52:00,
2013-11-03 11:57:00,67.1,39.9,30.11,ESE,112,2.7,9.4,37,0.00,,,0.00,WUHU216DAVISVP2,2013-11-03 17:57:00,
2013-11-03 12:02:00,67.2,38.6,30.11,ESE,118,1.4,8.1,35,0.00,,,0.00,WUHU216DAVISVP2,2013-11-03 18:02:00,
2013-11-03 12:07:00,67.5,38.7,30.10,ESE,123,2.7,8.1,35,0.00,,,0.00,WUHU216DAVISVP2,2013-11-03 18:07:00,
2013-11-03 12:12:00,67.7,40.3,30.10,SSE,149,4.1,8.1,37,0.00,,,0.00,WUHU216DAVISVP2,2013-11-03 18:12:00,
2013-11-03 12:17:00,68.0,38.4,30.09,NE,40,6.8,8.1,34,0.00,,,0.00,WUHU216DAVISVP2,2013-11-03 18:17:00,
2013-11-03 12:22:00,68.1,38.5,30.09,East,91,2.7,8.1,34,0.00,,,0.00,WUHU216DAVISVP2,2013-11-03 18:22:00,
2013-11-03 12:27:00,68.2,40.8,30.09,SSE,155,5.4,8.1,37,0.00,,,0.00,WUHU216DAVISVP2,2013-11-03 18:27:00,
2013-11-03 12:32:00,68.7,38.2,30.08,ESE,115,1.4,8.1,33,0.00,,,0.00,WUHU216DAVISVP2,2013-11-03 18:32:00,
2013-11-03 12:37:00,68.7,38.4,30.08,ESE,110,1.4,7.0,33,0.00,,,0.00,WUHU216DAVISVP2,2013-11-03 18:37:00,
2013-11-03 12:42:00,68.8,39.1,30.08,ESE,118,5.4,8.1,34,0.00,,,0.00,WUHU216DAVISVP2,2013-11-03 18:42:00,
2013-11-03 12:47:00,69.0,37.7,30.08,ESE,121,2.7,13.5,32,0.00,,,0.00,WUHU216DAVISVP2,2013-11-03 18:47:00,
2013-11-03 12:52:00,69.1,42.3,30.07,SE,124,4.1,13.5,38,0.00,,,0.00,WUHU216DAVISVP2,2013-11-03 18:52:00,
2013-11-03 12:57:00,69.4,40.4,30.06,SSE,155,4.1,10.0,35,0.00,,,0.00,WUHU216DAVISVP2,2013-11-03 18:57:00,
2013-11-03 13:02:00,69.3,39.5,30.06,SE,127,1.4,10.0,34,0.00,,,0.00,WUHU216DAVISVP2,2013-11-03 19:02:00,
2013-11-03 13:07:00,69.3,34.6,30.05,SE,132,4.1,10.8,28,0.00,,,0.00,WUHU216DAVISVP2,2013-11-03 19:07:00,
2013-11-03 13:12:00,69.6,35.9,30.05,East,97,2.7,10.8,29,0.00,,,0.00,WUHU216DAVISVP2,2013-11-03 19:12:00,
2013-11-03 13:17:00,69.5,36.5,30.04,SE,145,2.7,14.9,30,0.00,,,0.00,WUHU216DAVISVP2,2013-11-03 19:17:00,
2013-11-03 13:22:00,69.7,36.7,30.04,SSE,161,4.1,14.9,30,0.00,,,0.00,WUHU216DAVISVP2,2013-11-03 19:22:00,
2013-11-03 13:27:00,69.9,36.9,30.04,SE,126,2.7,11.0,30,0.00,,,0.00,WUHU216DAVISVP2,2013-11-03 19:27:00,
2013-11-03 13:32:00,69.9,34.2,30.04,SE,134,2.7,11.0,27,0.00,,,0.00,WUHU216DAVISVP2,2013-11-03 19:32:00,
2013-11-03 13:37:00,70.0,37.8,30.03,SE,141,4.1,8.0,31,0.00,,,0.00,WUHU216DAVISVP2,2013-11-03 19:37:00,
2013-11-03 13:42:00,70.2,37.1,30.03,ESE,119,6.8,10.8,30,0.00,,,0.00,WUHU216DAVISVP2,2013-11-03 19:42:00,
2013-11-03 13:47:00,70.2,38.1,30.02,ESE,114,5.4,12.1,31,0.00,,,0.00,WUHU216DAVISVP2,2013-11-03 19:47:00,
2013-11-03 13:53:00,70.4,38.1,30.02,SE,135,2.7,12.1,31,0.00,,,0.00,WUHU216DAVISVP2,2013-11-03 19:53:00,
2013-11-03 13:58:00,70.6,38.3,30.02,SE,124,6.8,9.4,31,0.00,,,0.00,WUHU216DAVISVP2,2013-11-03 19:58:00,
2013-11-03 14:03:00,70.4,38.9,30.02,East,89,6.8,9.4,32,0.00,,,0.00,WUHU216DAVISVP2,2013-11-03 20:03:00,
2013-11-03 14:08:00,70.2,36.3,30.02,SSE,148,4.1,9.4,29,0.00,,,0.00,WUHU216DAVISVP2,2013-11-03 20:08:00,
2013-11-03 14:13:00,70.3,38.9,30.02,SSE,159,4.1,9.4,32,0.00,,,0.00,WUHU216DAVISVP2,2013-11-03 20:13:00,
2013-11-03 14:18:00,70.7,39.2,30.01,ESE,108,6.8,9.4,32,0.00,,,0.00,WUHU216DAVISVP2,2013-11-03 20:18:00,
2013-11-03 14:23:00,71.0,37.0,30.01,East,90,2.7,9.4,29,0.00,,,0.00,WUHU216DAVISVP2,2013-11-03 20:23:00,
2013-11-03 14:28:00,71.0,40.3,30.01,East,99,6.8,9.4,33,0.00,,,0.00,WUHU216DAVISVP2,2013-11-03 20:28:00,
2013-11-03 14:33:00,71.0,39.5,30.01,SSE,149,10.8,10.8,32,0.00,,,0.00,WUHU216DAVISVP2,2013-11-03 20:33:00,
2013-11-03 14:38:00,71.2,39.6,30.01,SE,140,1.4,10.8,32,0.00,,,0.00,WUHU216DAVISVP2,2013-11-03 20:38:00,
2013-11-03 14:43:00,71.1,39.6,30.01,East,87,1.4,10.8,32,0.00,,,0.00,WUHU216DAVISVP2,2013-11-03 20:43:00,
2013-11-03 14:48:00,71.5,41.5,30.01,SSE,162,4.1,8.1,34,0.00,,,0.00,WUHU216DAVISVP2,2013-11-03 20:48:00,
2013-11-03 14:53:00,71.4,40.6,30.01,SSE,156,6.8,9.4,33,0.00,,,0.00,WUHU216DAVISVP2,2013-11-03 20:53:00,
2013-11-03 14:58:00,71.3,41.3,30.01,SSE,153,1.4,9.4,34,0.00,,,0.00,WUHU216DAVISVP2,2013-11-03 20:58:00,
2013-11-03 15:03:00,71.6,39.2,30.00,East,99,6.8,8.1,31,0.00,,,0.00,WUHU216DAVISVP2,2013-11-03 21:03:00,
2013-11-03 15:08:00,71.7,40.1,30.00,ESE,121,0.0,8.1,32,0.00,,,0.00,WUHU216DAVISVP2,2013-11-03 21:08:00,
2013-11-03 15:13:00,71.9,41.0,30.00,South,173,1.4,8.1,33,0.00,,,0.00,WUHU216DAVISVP2,2013-11-03 21:13:00,
2013-11-03 15:18:00,71.9,41.0,30.00,SSE,149,5.4,8.1,33,0.00,,,0.00,WUHU216DAVISVP2,2013-11-03 21:18:00,
2013-11-03 15:23:00,71.9,41.0,30.00,SE,145,2.7,8.1,33,0.00,,,0.00,WUHU216DAVISVP2,2013-11-03 21:23:00,
2013-11-03 15:28:00,72.0,41.1,30.00,SE,132,2.7,8.1,33,0.00,,,0.00,WUHU216DAVISVP2,2013-11-03 21:28:00,
2013-11-03 15:33:00,71.6,40.0,30.00,ESE,111,1.4,6.8,32,0.00,,,0.00,WUHU216DAVISVP2,2013-11-03 21:33:00,
2013-11-03 15:38:00,71.5,39.1,29.99,ESE,110,2.7,6.8,31,0.00,,,0.00,WUHU216DAVISVP2,2013-11-03 21:38:00,
2013-11-03 15:43:00,71.2,39.6,29.99,ESE,120,2.7,6.8,32,0.00,,,0.00,WUHU216DAVISVP2,2013-11-03 21:43:00,
2013-11-03 15:48:00,70.8,39.3,29.99,East,97,4.1,6.8,32,0.00,,,0.00,WUHU216DAVISVP2,2013-11-03 21:48:00,
2013-11-03 15:53:00,71.0,42.7,29.99,SSE,148,5.4,6.8,36,0.00,,,0.00,WUHU216DAVISVP2,2013-11-03 21:53:00,
2013-11-03 15:58:00,71.5,42.2,29.99,SSE,164,5.4,7.0,35,0.00,,,0.00,WUHU216DAVISVP2,2013-11-03 21:58:00,
2013-11-03 16:03:00,71.8,41.9,29.99,ESE,112,4.1,8.1,34,0.00,,,0.00,WUHU216DAVISVP2,2013-11-03 22:03:00,
2013-11-03 16:08:00,71.9,41.2,29.99,East,97,1.4,8.1,33,0.00,,,0.00,WUHU216DAVISVP2,2013-11-03 22:08:00,
2013-11-03 16:13:00,71.7,41.7,29.99,SE,133,4.1,9.4,34,0.00,,,0.00,WUHU216DAVISVP2,2013-11-03 22:13:00,
2013-11-03 16:18:00,71.6,41.6,29.99,East,94,2.7,9.4,34,0.00,,,0.00,WUHU216DAVISVP2,2013-11-03 22:18:00,
2013-11-03 16:23:00,71.3,41.3,29.98,ESE,105,1.4,8.1,34,0.00,,,0.00,WUHU216DAVISVP2,2013-11-03 22:23:00,
2013-11-03 16:28:00,71.2,42.0,29.99,ESE,116,2.7,8.1,35,0.00,,,0.00,WUHU216DAVISVP2,2013-11-03 22:28:00,
2013-11-03 16:33:00,70.9,42.4,29.99,SE,140,2.7,8.0,36,0.00,,,0.00,WUHU216DAVISVP2,2013-11-03 22:33:00,
2013-11-03 16:38:00,70.6,42.9,29.99,SE,146,4.1,8.0,37,0.00,,,0.00,WUHU216DAVISVP2,2013-11-03 22:38:00,
2013-11-03 16:43:00,70.3,42.6,29.99,SSE,149,2.7,5.4,37,0.00,,,0.00,WUHU216DAVISVP2,2013-11-03 22:43:00,
2013-11-03 16:48:00,70.0,42.5,29.99,SSE,155,0.0,5.4,37,0.00,,,0.00,WUHU216DAVISVP2,2013-11-03 22:48:00,
2013-11-03 16:53:00,69.9,43.7,29.99,SE,139,0.0,5.4,39,0.00,,,0.00,WUHU216DAVISVP2,2013-11-03 22:53:00,
2013-11-03 16:58:00,69.5,44.7,29.99,SE,139,0.0,5.4,41,0.00,,,0.00,WUHU216DAVISVP2,2013-11-03 22:58:00,
2013-11-03 17:03:00,69.1,44.3,29.99,SE,139,0.0,4.1,41,0.00,,,0.00,WUHU216DAVISVP2,2013-11-03 23:03:00,
2013-11-03 17:08:00,68.3,44.3,29.99,SE,139,0.0,4.0,42,0.00,,,0.00,WUHU216DAVISVP2,2013-11-03 23:08:00,
2013-11-03 17:13:00,68.1,45.3,29.99,SE,139,0.0,3.0,44,0.00,,,0.00,WUHU216DAVISVP2,2013-11-03 23:13:00,
2013-11-03 17:18:00,67.8,45.0,30.00,SE,139,0.0,1.0,44,0.00,,,0.00,WUHU216DAVISVP2,2013-11-03 23:18:00,
2013-11-03 17:23:00,67.7,46.1,30.00,SE,139,0.0,1.0,46,0.00,,,0.00,WUHU216DAVISVP2,2013-11-03 23:23:00,
2013-11-03 17:28:00,67.6,45.5,30.00,SE,139,0.0,0.0,45,0.00,,,0.00,WUHU216DAVISVP2,2013-11-03 23:28:00,
2013-11-03 17:33:00,67.5,46.0,30.00,SE,139,0.0,0.0,46,0.00,,,0.00,WUHU216DAVISVP2,2013-11-03 23:33:00,
2013-11-03 17:38:00,67.4,46.5,30.00,SE,139,0.0,0.0,47,0.00,,,0.00,WUHU216DAVISVP2,2013-11-03 23:38:00,
2013-11-03 17:43:00,67.2,46.3,30.00,SE,139,0.0,0.0,47,0.00,,,0.00,WUHU216DAVISVP2,2013-11-03 23:43:00,
2013-11-03 17:48:00,66.8,47.6,30.00,SE,139,0.0,0.0,50,0.00,,,0.00,WUHU216DAVISVP2,2013-11-03 23:48:00,
2013-11-03 17:53:00,66.4,48.3,30.00,SE,139,0.0,0.0,52,0.00,,,0.00,WUHU216DAVISVP2,2013-11-03 23:53:00,
2013-11-03 17:58:00,65.9,48.9,30.01,SE,139,0.0,0.0,54,0.00,,,0.00,WUHU216DAVISVP2,2013-11-03 23:58:00,
2013-11-03 18:03:00,65.5,47.9,30.00,SE,139,0.0,0.0,53,0.00,,,0.00,WUHU216DAVISVP2,2013-11-04 00:03:00,
2013-11-03 18:08:00,65.2,48.7,30.01,SE,139,0.0,0.0,55,0.00,,,0.00,WUHU216DAVISVP2,2013-11-04 00:08:00,
2013-11-03 18:13:00,64.8,48.8,30.01,SE,139,0.0,0.0,56,0.00,,,0.00,WUHU216DAVISVP2,2013-11-04 00:13:00,
2013-11-03 18:18:00,64.5,48.6,30.01,SE,139,0.0,0.0,56,0.00,,,0.00,WUHU216DAVISVP2,2013-11-04 00:18:00,
2013-11-03 18:23:00,64.1,51.0,30.01,SE,139,0.0,0.0,62,0.00,,,0.00,WUHU216DAVISVP2,2013-11-04 00:23:00,
2013-11-03 18:28:00,63.7,49.7,30.01,SE,139,0.0,1.4,60,0.00,,,0.00,WUHU216DAVISVP2,2013-11-04 00:28:00,
2013-11-03 18:33:00,63.3,49.3,30.00,SE,139,0.0,1.4,60,0.00,,,0.00,WUHU216DAVISVP2,2013-11-04 00:33:00,
2013-11-03 18:38:00,63.0,49.3,30.01,SE,139,0.0,1.0,61,0.00,,,0.00,WUHU216DAVISVP2,2013-11-04 00:38:00,
2013-11-03 18:43:00,62.7,49.2,30.01,SE,139,0.0,1.0,61,0.00,,,0.00,WUHU216DAVISVP2,2013-11-04 00:43:00,
2013-11-03 18:48:00,62.4,49.4,30.01,SE,139,0.0,0.0,62,0.00,,,0.00,WUHU216DAVISVP2,2013-11-04 00:48:00,
2013-11-03 18:53:00,62.2,49.2,30.01,SE,139,0.0,0.0,62,0.00,,,0.00,WUHU216DAVISVP2,2013-11-04 00:53:00,
2013-11-03 18:58:00,62.1,49.5,30.01,SE,139,0.0,0.0,63,0.00,,,0.00,WUHU216DAVISVP2,2013-11-04 00:58:00,
2013-11-03 19:03:00,62.1,49.5,30.02,SE,139,0.0,0.0,63,0.00,,,0.00,WUHU216DAVISVP2,2013-11-04 01:03:00,
2013-11-03 19:08:00,62.0,49.3,30.02,SE,139,0.0,0.0,63,0.00,,,0.00,WUHU216DAVISVP2,2013-11-04 01:08:00,
2013-11-03 19:13:00,61.9,49.7,30.02,SE,139,0.0,0.0,64,0.00,,,0.00,WUHU216DAVISVP2,2013-11-04 01:13:00,
2013-11-03 19:18:00,61.7,50.4,30.02,SE,139,0.0,0.0,66,0.00,,,0.00,WUHU216DAVISVP2,2013-11-04 01:18:00,
2013-11-03 19:23:00,61.3,50.0,30.02,SE,139,0.0,0.0,66,0.00,,,0.00,WUHU216DAVISVP2,2013-11-04 01:23:00,
2013-11-03 19:28:00,61.1,50.2,30.03,SE,139,0.0,0.0,67,0.00,,,0.00,WUHU216DAVISVP2,2013-11-04 01:28:00,
2013-11-03 19:33:00,61.2,49.9,30.03,SE,139,0.0,0.0,66,0.00,,,0.00,WUHU216DAVISVP2,2013-11-04 01:33:00,
2013-11-03 19:38:00,61.3,50.0,30.03,SE,139,0.0,1.4,66,0.00,,,0.00,WUHU216DAVISVP2,2013-11-04 01:38:00,
2013-11-03 19:43:00,61.4,50.1,30.03,SE,139,0.0,1.4,66,0.00,,,0.00,WUHU216DAVISVP2,2013-11-04 01:43:00,
2013-11-03 19:48:00,61.4,49.9,30.03,SE,139,0.0,1.4,66,0.00,,,0.00,WUHU216DAVISVP2,2013-11-04 01:48:00,
2013-11-03 19:53:00,61.4,49.5,30.04,SE,139,0.0,1.0,65,0.00,,,0.00,WUHU216DAVISVP2,2013-11-04 01:53:00,
2013-11-03 19:58:00,61.4,49.5,30.04,SE,139,0.0,1.0,65,0.00,,,0.00,WUHU216DAVISVP2,2013-11-04 01:58:00,
2013-11-03 20:03:00,61.2,50.7,30.03,SE,139,0.0,0.0,68,0.00,,,0.00,WUHU216DAVISVP2,2013-11-04 02:03:00,
2013-11-03 20:08:00,61.0,50.1,30.04,SE,139,0.0,0.0,67,0.00,,,0.00,WUHU216DAVISVP2,2013-11-04 02:08:00,
2013-11-03 20:13:00,60.9,50.4,30.03,SE,139,0.0,0.0,68,0.00,,,0.00,WUHU216DAVISVP2,2013-11-04 02:13:00,
2013-11-03 20:18:00,61.0,50.9,30.04,SE,139,0.0,1.4,69,0.00,,,0.00,WUHU216DAVISVP2,2013-11-04 02:18:00,
2013-11-03 20:23:00,61.1,51.0,30.04,SE,139,0.0,1.4,69,0.00,,,0.00,WUHU216DAVISVP2,2013-11-04 02:23:00,
2013-11-03 20:28:00,61.2,51.5,30.03,SE,139,0.0,1.4,70,0.00,,,0.00,WUHU216DAVISVP2,2013-11-04 02:28:00,
2013-11-03 20:33:00,61.2,51.5,30.03,SE,139,0.0,1.4,70,0.00,,,0.00,WUHU216DAVISVP2,2013-11-04 02:33:00,
2013-11-03 20:38:00,61.2,52.2,30.03,SE,139,0.0,1.4,72,0.00,,,0.00,WUHU216DAVISVP2,2013-11-04 02:38:00,
2013-11-03 20:43:00,61.2,52.2,30.03,SE,139,1.4,2.7,72,0.00,,,0.00,WUHU216DAVISVP2,2013-11-04 02:43:00,
2013-11-03 20:48:00,61.3,52.7,30.03,SE,129,1.4,2.7,73,0.00,,,0.00,WUHU216DAVISVP2,2013-11-04 02:48:00,
2013-11-03 20:53:00,61.4,53.1,30.03,SE,129,0.0,2.7,74,0.00,,,0.00,WUHU216DAVISVP2,2013-11-04 02:53:00,
2013-11-03 20:58:00,61.5,53.3,30.04,SE,129,0.0,2.7,74,0.00,,,0.00,WUHU216DAVISVP2,2013-11-04 02:58:00,
2013-11-03 21:03:00,61.5,53.6,30.04,SE,129,0.0,2.7,75,0.00,,,0.00,WUHU216DAVISVP2,2013-11-04 03:03:00,
2013-11-03 21:08:00,61.7,53.8,30.03,SE,129,0.0,2.0,75,0.00,,,0.00,WUHU216DAVISVP2,2013-11-04 03:08:00,
2013-11-03 21:13:00,61.9,54.0,30.03,SE,126,2.7,4.1,75,0.00,,,0.00,WUHU216DAVISVP2,2013-11-04 03:13:00,
2013-11-03 21:18:00,62.3,54.4,30.03,SE,138,2.7,5.0,75,0.00,,,0.00,WUHU216DAVISVP2,2013-11-04 03:18:00,
2013-11-03 21:23:00,62.8,54.5,30.03,ESE,122,4.1,5.4,74,0.00,,,0.00,WUHU216DAVISVP2,2013-11-04 03:23:00,
2013-11-03 21:28:00,63.1,54.8,30.03,SE,136,1.4,5.4,74,0.00,,,0.00,WUHU216DAVISVP2,2013-11-04 03:28:00,
2013-11-03 21:33:00,63.2,54.9,30.02,ESE,105,4.1,5.4,74,0.00,,,0.00,WUHU216DAVISVP2,2013-11-04 03:33:00,
2013-11-03 21:38:00,63.4,54.7,30.02,SE,137,2.7,6.8,73,0.00,,,0.00,WUHU216DAVISVP2,2013-11-04 03:38:00,
2013-11-03 21:43:00,63.5,54.8,30.02,ESE,119,4.1,8.1,73,0.00,,,0.00,WUHU216DAVISVP2,2013-11-04 03:43:00,
2013-11-03 21:48:00,63.7,55.0,30.02,SE,143,4.1,10.8,73,0.00,,,0.00,WUHU216DAVISVP2,2013-11-04 03:48:00,
2013-11-03 21:53:00,64.0,54.9,30.02,SE,124,6.8,10.8,72,0.00,,,0.00,WUHU216DAVISVP2,2013-11-04 03:53:00,
2013-11-03 21:58:00,63.9,55.2,30.01,SE,131,9.4,9.4,73,0.00,,,0.00,WUHU216DAVISVP2,2013-11-04 03:58:00,
2013-11-03 22:03:00,64.0,55.3,30.02,SSE,149,4.1,10.8,73,0.00,,,0.00,WUHU216DAVISVP2,2013-11-04 04:03:00,
2013-11-03 22:08:00,63.8,55.1,30.02,SE,130,6.8,12.1,73,0.00,,,0.00,WUHU216DAVISVP2,2013-11-04 04:08:00,
2013-11-03 22:13:00,63.8,55.1,30.01,SE,141,5.4,12.1,73,0.00,,,0.00,WUHU216DAVISVP2,2013-11-04 04:13:00,
2013-11-03 22:18:00,63.8,55.5,30.01,SSE,147,5.4,10.8,74,0.00,,,0.00,WUHU216DAVISVP2,2013-11-04 04:18:00,
2013-11-03 22:23:00,63.9,55.6,30.01,SE,142,5.4,9.4,74,0.00,,,0.00,WUHU216DAVISVP2,2013-11-04 04:23:00,
2013-11-03 22:28:00,64.0,55.3,30.01,SE,137,4.1,9.4,73,0.00,,,0.00,WUHU216DAVISVP2,2013-11-04 04:28:00,
2013-11-03 22:33:00,64.0,55.3,30.00,SE,139,5.4,10.8,73,0.00,,,0.00,WUHU216DAVISVP2,2013-11-04 04:33:00,
2013-11-03 22:38:00,64.1,55.7,30.00,SE,139,5.4,12.1,74,0.00,,,0.00,WUHU216DAVISVP2,2013-11-04 04:38:00,
2013-11-03 22:43:00,64.1,55.4,30.00,SE,135,9.4,12.1,73,0.00,,,0.00,WUHU216DAVISVP2,2013-11-04 04:43:00,
2013-11-03 22:48:00,64.1,55.4,29.99,SE,130,2.7,12.1,73,0.00,,,0.00,WUHU216DAVISVP2,2013-11-04 04:48:00,
2013-11-03 22:53:00,64.2,55.8,29.99,SE,137,2.7,10.8,74,0.00,,,0.00,WUHU216DAVISVP2,2013-11-04 04:53:00,
2013-11-03 22:58:00,64.2,55.8,30.00,SSE,153,10.8,10.8,74,0.00,,,0.00,WUHU216DAVISVP2,2013-11-04 04:58:00,
2013-11-03 23:01:00,64.2,55.9,30.00,South,180,5.4,12.1,74,0.00,,,0.00,WUHU216DAVISVP2,2013-11-04 05:01:00,
2013-11-03 23:02:00,64.2,55.9,30.00,South,180,5.4,12.1,74,0.00,,,0.00,WUHU216DAVISVP2,2013-11-04 05:02:00,
2013-11-03 23:07:00,64.3,56.0,30.01,SSE,148,1.4,12.1,74,0.00,,,0.00,WUHU216DAVISVP2,2013-11-04 05:07:00,
2013-11-03 23:12:00,64.3,56.0,30.01,SSE,157,5.4,9.4,74,0.00,,,0.00,WUHU216DAVISVP2,2013-11-04 05:12:00,
2013-11-03 23:17:00,64.4,56.0,30.01,SE,142,1.4,8.1,74,0.00,,,0.00,WUHU216DAVISVP2,2013-11-04 05:17:00,
2013-11-03 23:22:00,64.3,56.0,30.01,SE,133,5.4,8.1,74,0.00,,,0.00,WUHU216DAVISVP2,2013-11-04 05:22:00,
2013-11-03 23:27:00,64.3,56.3,30.01,SSE,157,5.4,8.1,75,0.00,,,0.00,WUHU216DAVISVP2,2013-11-04 05:27:00,
2013-11-03 23:32:00,64.2,56.3,30.02,SE,137,1.4,7.0,75,0.00,,,0.00,WUHU216DAVISVP2,2013-11-04 05:32:00,
2013-11-03 23:37:00,64.3,56.3,30.01,SSE,149,2.7,8.1,75,0.00,,,0.00,WUHU216DAVISVP2,2013-11-04 05:37:00,
2013-11-03 23:42:00,64.2,56.2,30.01,SE,135,4.1,8.1,75,0.00,,,0.00,WUHU216DAVISVP2,2013-11-04 05:42:00,
2013-11-03 23:47:00,64.1,56.1,30.01,SE,141,4.1,10.8,75,0.00,,,0.00,WUHU216DAVISVP2,2013-11-04 05:47:00,
2013-11-03 23:52:00,64.1,56.1,30.00,SE,132,1.4,10.8,75,0.00,,,0.00,WUHU216DAVISVP2,2013-11-04 05:52:00,
2013-11-03 23:57:00,64.1,56.5,30.01,SE,144,5.4,9.0,76,0.00,,,0.00,WUHU216DAVISVP2,2013-11-04 05:57:00,